Notices

What's New in latest Release from April 7th, 2021:

- Updated Glossary, including Speed of Maximum Gust, and Total Hourly Precipitation

- Updated national and regional climate services offices contacts and prices information

- Addition of station inventory lists for 1981-2010, 1971-2000, and 1961-1990 Normals.

If you haven't already, please take our survey and provide feedback about our website: https://eccc.sondage-survey.ca/f/LanguageSelection.aspx?s=442ca660-fcf1-47c0-95a9-59707d6fd709

Hourly Data Report for March 08, 2017

MIRAMICHI RCS
NEW BRUNSWICK

47°00'34.000" N
65°27'54.000" W
33.00 m
8100989
71744
ACQ

Download Data

Hourly Data (March 2017)
Hourly Data Report for March 8, 2017
TIME
LST
Temp Definition
°C
Dew Point Definition
°C
Rel Hum Definition
%
Precip. Amount Definition
mm

Wind Dir Definition
10's deg

Wind Spd Definition
km/h
Visibility Definition
km
Stn Press Definition
kPa
Hmdx Definition


Wind Chill Definition


Weather Definition


00:00 -0.4 -1.2 94 0.0 19 10   101.79   -4 LegendNANA
01:00 0.2 -0.8 93 0.3 19 15   101.68     LegendNANA
02:00 0.3 -0.8 92 0.3 20 17   101.56     LegendNANA
03:00 0.3 -0.8 93 0.2 20 16   101.44     LegendNANA
04:00 0.2 -0.8 93 0.0 19 12   101.28     LegendNANA
05:00 0.2 -0.7 94 0.0 18 9   101.17     LegendNANA
06:00 0.3 -0.4 95 0.0 15 6   101.08     LegendNANA
07:00 0.2 -0.3 96 0.6 14 4   100.95     LegendNANA
08:00 0.3 -0.3 96 0.8 9 3   100.84     LegendNANA
09:00 0.5 -0.1 96 1.2 7 6   100.70     LegendNANA
10:00 0.8 0.2 96 1.0 7 6   100.56     LegendNANA
11:00 1.1 0.4 96 0.6 7 7   100.38     LegendNANA
12:00 1.9 1.6 98 0.6 5 3   100.22     LegendNANA
13:00 2.7 2.1 96 0.5 4 3   100.03     LegendNANA
14:00 3.3 2.7 96 0.2 33 1   99.88     LegendNANA
15:00 3.0 2.6 97 0.2   0   99.72     LegendNANA
16:00 3.0 2.7 98 2.2 27 6   99.60     LegendNANA
17:00 3.0 2.7 98 0.0 28 8   99.52     LegendNANA
18:00 2.7 2.4 98 0.6 26 15   99.57     LegendNANA
19:00 3.1 2.4 95 0.2 26 14   99.67     LegendNANA
20:00 2.9 1.8 92 0.0 26 13   99.78     LegendNANA
21:00 1.9 0.9 93 0.0 25 9   99.76     LegendNANA
22:00 0.9 -0.2 93 0.0 24 13   99.87     LegendNANA
23:00 0.5 -0.6 92 0.0 23 16   99.93     LegendNANA

Notes on Data Quality.

Legend

  • E = Estimated
  • M = Missing
  • NA = Not Available*
  • [empty] = Indicates an unobserved value
Date modified: